GW1213 Weather Reports


time (UTC)temp
F
wind
direction
speed
knots
gust
knots
rain 1hr
in
rain 24hr
in
rain mn
in
humidity
%
barometer
mb
20230208160046 59 135 2.6 3.5 0.00 0.00 0.00 48 1023.8
20230208155538 59 123 0.9 4.3 0.00 0.00 0.00 48 1023.9
20230208155038 58 94 0.9 4.3 0.00 0.00 0.00 49 1024.0
20230208154546 57 92 0.9 3.5 0.00 0.00 0.00 51 1024.0
20230208154038 57 63 0.9 2.6 0.00 0.00 0.00 49 1023.9
20230208153534 56 209 0.0 2.6 0.00 0.00 0.00 50 1023.9
20230208153056 56 89 1.7 2.6 0.00 0.00 0.00 51 1023.9
20230208152537 55 83 0.0 2.6 0.00 0.00 0.00 52 1023.8
20230208152040 55 97 0.9 2.6 0.00 0.00 0.00 52 1023.8
20230208151558 55 88 0.9 2.6 0.00 0.00 0.00 52 1023.8
20230208151039 54 87 0.9 1.7 0.00 0.00 0.00 52 1023.8
20230208150535 54 96 0.9 1.7 0.00 0.00 0.00 54 1023.8
20230208150052 54 84 0.9 2.6 0.00 0.00 0.00 54 1023.7
20230208145535 53 78 0.9 2.6 0.00 0.00 0.00 57 1023.7
20230208145035 53 81 0.9 1.7 0.00 0.00 0.00 57 1023.6
20230208144550 52 0 0.0 2.6 0.00 0.00 0.00 60 1023.6
20230208144038 52 75 0.9 2.6 0.00 0.00 0.00 62 1023.6
20230208143540 51 80 0.9 2.6 0.00 0.00 0.00 61 1023.5
20230208143050 51 96 0.0 2.6 0.00 0.00 0.00 63 1023.5
20230208142537 50 76 0.0 0.9 0.00 0.00 0.00 66 1023.4
20230208142038 49 38 0.0 0.9 0.00 0.00 0.00 66 1023.4
20230208141555 49 67 0.0 0.9 0.00 0.00 0.00 69 1023.2
20230208141035 48 0 0.0 0.9 0.00 0.00 0.00 70 1023.2
20230208140538 48 0 0.0 1.7 0.00 0.00 0.00 71 1023.1
20230208140059 47 0 0.0 1.7 0.00 0.00 0.00 74 1023.3
20230208135537 47 279 0.0 1.7 0.00 0.00 0.00 72 1023.0
20230208135037 46 0 0.0 1.7 0.00 0.00 0.00 73 1023.0
20230208134548 46 107 0.0 0.9 0.00 0.00 0.00 77 1022.9
20230208134036 46 0 0.0 1.7 0.00 0.00 0.00 76 1022.9
20230208133535 45 108 0.0 1.7 0.00 0.00 0.00 77 1022.8
20230208133047 45 102 0.0 1.7 0.00 0.00 0.00 76 1022.7
20230208132538 45 0 0.0 1.7 0.00 0.00 0.00 76 1022.7
20230208132037 45 0 0.0 1.7 0.00 0.00 0.00 75 1022.7
20230208131551 45 244 0.9 1.7 0.00 0.00 0.00 75 1022.7
20230208131042 44 212 0.0 1.7 0.00 0.00 0.00 77 1022.5
20230208130538 44 264 0.0 0.9 0.00 0.00 0.00 77 1022.5
20230208130048 44 264 0.0 1.7 0.00 0.00 0.00 78 1022.4
20230208125539 44 0 0.0 1.7 0.00 0.00 0.00 77 1022.5
20230208125037 44 0 0.0 1.7 0.00 0.00 0.00 76 1022.3
20230208124553 44 0 0.0 0.9 0.00 0.00 0.00 76 1022.2
20230208124037 44 0 0.0 0.0 0.00 0.00 0.00 77 1022.0
20230208123537 44 0 0.0 0.0 0.00 0.00 0.00 76 1021.6
20230208123054 44 0 0.0 0.0 0.00 0.00 0.00 76 1021.5
20230208122535 44 0 0.0 0.0 0.00 0.00 0.00 76 1021.6
20230208122035 44 0 0.0 0.0 0.00 0.00 0.00 76 1021.4
20230208121614 44 0 0.0 0.0 0.00 0.00 0.00 76 1021.3
20230208121038 44 0 0.0 0.9 0.00 0.00 0.00 75 1021.0
20230208120541 44 0 0.0 0.9 0.00 0.00 0.00 76 1020.9
20230208120050 44 0 0.0 0.9 0.00 0.00 0.00 75 1021.0
20230208115538 45 0 0.0 0.9 0.00 0.00 0.00 74 1020.9
20230208115038 45 0 0.0 0.9 0.00 0.00 0.00 74 1020.9
20230208114553 45 0 0.0 0.0 0.00 0.00 0.00 74 1020.6
20230208114035 45 0 0.0 0.9 0.00 0.00 0.00 74 1020.6
20230208113538 45 0 0.0 0.9 0.00 0.00 0.00 74 1020.5
20230208113043 45 0 0.0 0.9 0.00 0.00 0.00 74 1020.5
20230208112538 45 0 0.0 0.9 0.00 0.00 0.00 73 1020.4
20230208112035 45 0 0.0 0.9 0.00 0.00 0.00 73 1020.4
20230208111551 45 0 0.0 0.9 0.00 0.00 0.00 74 1020.4
20230208111038 45 0 0.0 0.9 0.00 0.00 0.00 74 1020.4
20230208110535 45 0 0.0 0.9 0.00 0.00 0.00 73 1020.3
20230208110106 45 0 0.0 0.9 0.00 0.00 0.00 73 1020.2
20230208105541 44 0 0.0 0.9 0.00 0.00 0.00 74 1020.2
20230208105039 44 180 0.0 0.0 0.00 0.00 0.00 74 1020.1
20230208104552 44 0 0.0 0.9 0.00 0.00 0.00 74 1020.0
20230208104040 45 0 0.0 1.7 0.00 0.00 0.00 75 1020.0
20230208103535 45 0 0.0 1.7 0.00 0.00 0.00 74 1019.9
20230208103057 45 0 0.0 1.7 0.00 0.00 0.00 74 1020.0
20230208102534 45 0 0.0 0.9 0.00 0.00 0.00 70 1019.9
20230208102037 46 176 0.0 0.9 0.00 0.00 0.00 71 1019.8
20230208101548 46 0 0.0 0.9 0.00 0.00 0.00 69 1019.8
20230208101038 47 190 0.0 0.9 0.00 0.00 0.00 68 1019.8
20230208100536 47 0 0.0 0.9 0.00 0.00 0.00 65 1019.7
20230208100049 48 0 0.0 0.9 0.00 0.00 0.00 64 1019.7
20230208095538 48 0 0.0 0.0 0.00 0.00 0.00 63 1019.7
20230208095034 48 0 0.0 0.9 0.00 0.00 0.00 62 1019.7
20230208094546 49 0 0.0 0.9 0.00 0.00 0.00 61 1019.7
20230208094039 49 0 0.0 0.9 0.00 0.00 0.00 60 1019.6
20230208093542 49 0 0.0 0.9 0.00 0.00 0.00 60 1019.6
20230208093048 49 0 0.0 0.9 0.00 0.00 0.00 60 1019.6
20230208092537 50 0 0.0 0.9 0.00 0.00 0.00 60 1019.5
20230208092038 50 0 0.0 0.9 0.00 0.00 0.00 59 1019.4
20230208091559 50 0 0.0 1.7 0.00 0.00 0.00 58 1019.3
20230208091038 50 0 0.0 1.7 0.00 0.00 0.00 58 1019.4
20230208090538 50 0 0.0 0.9 0.00 0.00 0.00 59 1019.4
20230208090049 50 0 0.0 0.9 0.00 0.00 0.00 59 1019.4
20230208085537 51 0 0.0 0.9 0.00 0.00 0.00 58 1019.3
20230208085038 51 0 0.0 0.9 0.00 0.00 0.00 56 1019.2
20230208084550 51 0 0.0 0.0 0.00 0.00 0.00 56 1019.2
20230208084037 51 0 0.0 0.9 0.00 0.00 0.00 56 1019.1
20230208083538 51 0 0.0 0.9 0.00 0.00 0.00 56 1018.9
20230208083050 52 202 0.0 0.9 0.00 0.00 0.00 55 1018.9
20230208082537 52 0 0.0 0.9 0.00 0.00 0.00 55 1019.1
20230208082037 52 0 0.0 0.9 0.00 0.00 0.00 54 1019.2
20230208081543 52 0 0.0 0.9 0.00 0.00 0.00 53 1019.1
20230208081040 52 0 0.0 2.6 0.00 0.00 0.00 54 1019.1
20230208080538 52 222 0.0 2.6 0.00 0.00 0.00 53 1019.2
20230208080055 52 204 0.0 2.6 0.00 0.00 0.00 53 1019.2
20230208075540 52 0 0.0 3.5 0.00 0.00 0.00 53 1019.1
20230208075037 52 254 0.0 3.5 0.00 0.00 0.00 53 1019.1
20230208074552 52 0 0.0 0.9 0.00 0.00 0.00 53 1019.2
20230208074035 53 0 0.0 0.9 0.00 0.00 0.00 53 1019.1
20230208073534 53 0 0.0 0.9 0.00 0.00 0.00 53 1019.2
20230208073042 53 0 0.0 0.9 0.00 0.00 0.00 53 1019.3
20230208072537 53 185 0.0 0.9 0.00 0.00 0.00 52 1019.2
20230208072036 53 0 0.0 0.9 0.00 0.00 0.00 52 1019.4
20230208071556 53 0 0.0 1.7 0.00 0.00 0.00 51 1019.3
20230208071037 53 185 0.0 1.7 0.00 0.00 0.00 52 1019.3
20230208070537 53 202 0.0 1.7 0.00 0.00 0.00 51 1019.3
20230208070054 53 0 0.0 2.6 0.00 0.00 0.00 51 1019.3
20230208065537 53 0 0.0 2.6 0.00 0.00 0.00 51 1019.2
20230208065037 53 0 0.0 2.6 0.00 0.00 0.00 51 1019.3
20230208064550 53 0 0.0 2.6 0.00 0.00 0.00 51 1019.4
20230208064037 53 111 0.0 1.7 0.00 0.00 0.00 51 1019.4
20230208063537 54 0 0.0 1.7 0.00 0.00 0.00 51 1019.4
20230208063044 54 197 0.0 1.7 0.00 0.00 0.00 51 1019.5
20230208062539 54 0 0.0 1.7 0.00 0.00 0.00 50 1019.5
20230208062035 54 0 0.0 1.7 0.00 0.00 0.00 50 1019.4
20230208061552 54 0 0.0 1.7 0.00 0.00 0.00 50 1019.4
20230208061036 54 0 0.0 1.7 0.00 0.00 0.00 50 1019.4
20230208060537 54 0 0.0 1.7 0.00 0.00 0.00 49 1019.5
20230208060105 54 161 0.0 1.7 0.00 0.00 0.00 49 1019.5
20230208055537 54 0 0.0 1.7 0.00 0.00 0.00 49 1019.5
20230208055037 55 0 0.0 3.5 0.00 0.00 0.00 50 1019.5
20230208054558 54 0 0.0 3.5 0.00 0.00 0.00 50 1019.5
20230208054037 54 220 0.0 2.6 0.00 0.00 0.00 50 1019.6
20230208053537 54 217 0.9 6.1 0.00 0.00 0.00 49 1019.5
20230208053058 54 242 0.0 6.1 0.00 0.00 0.00 50 1019.5
20230208052539 54 261 0.9 6.1 0.00 0.00 0.00 51 1019.4
20230208052037 54 0 0.0 2.6 0.00 0.00 0.00 51 1019.4
20230208051556 54 0 0.0 2.6 0.00 0.00 0.00 51 1019.6
20230208051037 54 0 0.0 2.6 0.00 0.00 0.00 52 1019.5
20230208050536 54 0 0.0 2.6 0.00 0.00 0.00 51 1019.4
20230208050124 54 0 0.9 5.2 0.00 0.00 0.00 51 1019.5
20230208045537 54 0 0.0 5.2 0.00 0.00 0.00 52 1019.5
20230208045038 53 250 0.9 3.5 0.00 0.00 0.00 52 1019.6
20230208044616 53 0 0.9 3.5 0.00 0.00 0.00 52 1019.5
20230208044037 53 0 0.0 2.6 0.00 0.00 0.00 53 1019.5
20230208043540 53 0 0.0 3.5 0.00 0.00 0.00 53 1019.4
20230208043051 53 0 0.0 3.5 0.00 0.00 0.00 53 1019.5
20230208042537 53 237 0.9 3.5 0.00 0.00 0.00 53 1019.5
20230208042039 53 163 0.9 3.5 0.00 0.00 0.00 53 1019.6
20230208041606 53 0 0.0 3.5 0.00 0.00 0.00 53 1019.7
20230208041035 53 0 0.9 3.5 0.00 0.00 0.00 53 1019.7
20230208040535 53 0 0.0 4.3 0.00 0.00 0.00 54 1019.8
20230208040047 53 51 0.0 4.3 0.00 0.00 0.00 53 1019.7
20230208035535 53 205 0.0 6.1 0.00 0.00 0.00 54 1019.7
20230208035037 53 0 0.0 6.1 0.00 0.00 0.00 54 1019.8
20230208034603 53 244 0.9 6.1 0.00 0.00 0.00 53 1019.7
20230208034035 53 254 1.7 5.2 0.00 0.00 0.00 53 1019.8
20230208033535 53 146 0.9 5.2 0.00 0.00 0.00 53 1019.9
20230208033054 53 284 1.7 5.2 0.00 0.00 0.00 54 1020.0
20230208032538 53 0 1.7 5.2 0.00 0.00 0.00 54 1020.1
20230208032038 53 171 0.9 3.5 0.00 0.00 0.00 54 1020.1
20230208031540 53 213 0.0 3.5 0.00 0.00 0.00 55 1020.2
20230208031035 53 229 0.9 4.3 0.00 0.00 0.00 55 1020.5
20230208030537 53 0 0.9 4.3 0.00 0.00 0.00 56 1020.4
20230208030051 53 0 0.9 4.3 0.00 0.00 0.00 56 1020.4
20230208025537 53 270 0.0 4.3 0.00 0.00 0.00 56 1020.4
20230208025037 52 207 1.7 4.3 0.00 0.00 0.00 56 1020.4
20230208024623 52 0 0.0 4.3 0.00 0.00 0.00 57 1020.4
20230208024037 52 170 0.9 5.2 0.00 0.00 0.00 57 1020.5
20230208023537 52 188 1.7 6.1 0.00 0.00 0.00 57 1020.3
20230208023047 52 202 1.7 6.1 0.00 0.00 0.00 58 1020.4
20230208022539 51 145 0.9 6.1 0.00 0.00 0.00 58 1020.3
20230208022037 51 174 0.9 5.2 0.00 0.00 0.00 59 1020.3
20230208021556 51 159 0.9 4.3 0.00 0.00 0.00 59 1020.4
20230208021037 50 154 0.9 4.3 0.00 0.00 0.00 60 1020.3
20230208020540 50 158 0.9 5.2 0.00 0.00 0.00 60 1020.4
20230208020056 50 162 0.9 5.2 0.00 0.00 0.00 60 1020.4
20230208015538 50 0 0.0 3.5 0.00 0.00 0.00 61 1020.6
20230208015038 50 0 0.9 4.3 0.00 0.00 0.00 61 1020.5
20230208014554 49 153 0.9 4.3 0.00 0.00 0.00 61 1020.5
20230208014045 49 180 0.0 2.6 0.00 0.00 0.00 62 1020.6
20230208013538 48 165 0.0 2.6 0.00 0.00 0.00 63 1020.7
20230208013046 48 0 0.0 1.7 0.00 0.00 0.00 64 1020.8
20230208012537 48 0 0.0 1.7 0.00 0.00 0.00 64 1020.8
20230208012036 48 0 0.0 1.7 0.00 0.00 0.00 64 1020.9
20230208011553 47 0 0.0 0.9 0.00 0.00 0.00 65 1021.0
20230208011038 47 0 0.0 0.9 0.00 0.00 0.00 64 1021.1
20230208010537 47 0 0.0 0.0 0.00 0.00 0.00 64 1021.2
20230208010047 48 0 0.0 0.0 0.00 0.00 0.00 64 1021.3
20230208005537 48 0 0.0 0.9 0.00 0.00 0.00 62 1021.1
20230208005040 48 0 0.0 0.9 0.00 0.00 0.00 63 1021.0
20230208004556 48 0 0.0 0.9 0.00 0.00 0.00 62 1021.0
20230208004041 48 0 0.0 0.9 0.00 0.00 0.00 62 1020.9
20230208003538 48 0 0.0 0.9 0.00 0.00 0.00 62 1020.9
20230208003108 48 19 0.0 0.9 0.00 0.00 0.00 62 1021.1
20230208002538 48 0 0.0 0.0 0.00 0.00 0.00 61 1021.1
20230208002040 48 0 0.0 0.0 0.00 0.00 0.00 61 1021.1
20230208001559 48 0 0.0 0.0 0.00 0.00 0.00 61 1021.1
20230208001036 48 0 0.0 0.0 0.00 0.00 0.00 61 1021.1
20230208000535 48 0 0.0 0.0 0.00 0.00 0.00 60 1021.0
20230208000054 48 0 0.0 0.9 0.00 0.00 0.00 60 1021.0
20230207235539 49 0 0.0 0.9 0.00 0.00 0.00 60 1021.0
20230207235036 49 0 0.0 0.9 0.00 0.00 0.00 60 1021.0
20230207234549 49 0 0.0 0.9 0.00 0.00 0.00 59 1020.9
20230207234040 49 109 0.0 0.9 0.00 0.00 0.00 59 1020.7
20230207233540 49 0 0.0 0.9 0.00 0.00 0.00 58 1020.9
20230207233052 49 105 0.0 0.9 0.00 0.00 0.00 57 1020.9
20230207232537 50 0 0.0 0.9 0.00 0.00 0.00 56 1021.2
20230207232036 50 0 0.0 0.9 0.00 0.00 0.00 56 1021.0
20230207231556 50 0 0.0 0.9 0.00 0.00 0.00 56 1021.1
20230207231035 51 0 0.0 0.9 0.00 0.00 0.00 55 1021.2
20230207230535 51 0 0.0 0.9 0.00 0.00 0.00 54 1021.2
20230207230107 51 0 0.0 0.9 0.00 0.00 0.00 53 1021.1
20230207225538 52 0 0.0 0.9 0.00 0.00 0.00 52 1021.1
20230207225035 52 0 0.0 0.9 0.00 0.00 0.00 52 1021.2
20230207224552 52 0 0.0 1.7 0.00 0.00 0.00 51 1021.1
20230207224035 53 0 0.0 1.7 0.00 0.00 0.00 51 1021.2
20230207223538 53 107 0.9 3.5 0.00 0.00 0.00 51 1021.1
20230207223104 53 0 0.0 3.5 0.00 0.00 0.00 50 1021.3
20230207222540 53 167 0.9 3.5 0.00 0.00 0.00 50 1021.4
20230207222036 53 0 0.9 3.5 0.00 0.00 0.00 49 1021.4
20230207221549 53 0 0.9 4.3 0.00 0.00 0.00 49 1021.3
20230207221038 53 173 0.9 4.3 0.00 0.00 0.00 49 1021.4
20230207220538 53 155 0.9 5.2 0.00 0.00 0.00 49 1021.3
20230207220053 54 178 1.7 5.2 0.00 0.00 0.00 49 1021.5
20230207215540 54 166 0.9 6.1 0.00 0.00 0.00 48 1021.4
20230207215036 54 161 1.7 7.0 0.00 0.00 0.00 48 1021.5
20230207214553 54 157 2.6 9.6 0.00 0.00 0.00 47 1021.3
20230207214036 54 179 3.5 9.6 0.00 0.00 0.00 47 1021.5
20230207213537 54 188 1.7 7.0 0.00 0.00 0.00 47 1021.9
20230207213102 54 196 2.6 7.0 0.00 0.00 0.00 47 1022.1
20230207212537 54 188 1.7 10.4 0.00 0.00 0.00 47 1022.1
20230207212038 54 229 1.7 11.3 0.00 0.00 0.00 46 1021.9
20230207211555 54 194 4.3 11.3 0.00 0.00 0.00 46 1021.9
20230207211035 54 186 1.7 7.8 0.00 0.00 0.00 46 1021.9
20230207210538 55 182 2.6 7.8 0.00 0.00 0.00 46 1022.0
20230207210055 55 201 0.9 8.7 0.00 0.00 0.00 46 1022.1
20230207205536 55 253 1.7 8.7 0.00 0.00 0.00 46 1022.2
20230207205036 55 282 2.6 7.8 0.00 0.00 0.00 46 1022.2
20230207204559 55 140 2.6 9.6 0.00 0.00 0.00 45 1022.4
20230207204036 55 167 3.5 9.6 0.00 0.00 0.00 44 1022.4
20230207203536 55 186 2.6 8.7 0.00 0.00 0.00 45 1022.1
20230207203108 55 166 1.7 7.0 0.00 0.00 0.00 44 1022.3
20230207202537 56 188 1.7 8.7 0.00 0.00 0.00 44 1022.3
20230207202039 56 271 2.6 8.7 0.00 0.00 0.00 44 1022.6
20230207201558 56 190 2.6 8.7 0.00 0.00 0.00 44 1022.5
20230207201038 55 275 2.6 9.6 0.00 0.00 0.00 44 1022.4
20230207200536 55 242 3.5 9.6 0.00 0.00 0.00 44 1022.4
20230207200102 55 164 2.6 10.4 0.00 0.00 0.00 44 1022.3
20230207195534 55 84 2.6 14.8 0.00 0.00 0.00 44 1022.5
20230207195036 56 277 2.6 14.8 0.00 0.00 0.00 43 1022.6
20230207194554 56 291 2.6 10.4 0.00 0.00 0.00 44 1022.8
20230207194037 55 205 3.5 10.4 0.00 0.00 0.00 44 1022.8
20230207193537 55 250 2.6 9.6 0.00 0.00 0.00 44 1022.9
20230207193049 55 219 3.5 8.7 0.00 0.00 0.00 45 1023.0
20230207192537 54 243 3.5 9.6 0.00 0.00 0.00 45 1023.4
20230207192036 54 219 3.5 13.9 0.00 0.00 0.00 46 1023.3
20230207191547 54 161 5.2 13.9 0.00 0.00 0.00 45 1023.4
20230207191036 54 173 2.6 9.6 0.00 0.00 0.00 46 1023.4
20230207190536 53 307 2.6 10.4 0.00 0.00 0.00 47 1023.6
20230207190054 53 194 3.5 10.4 0.00 0.00 0.00 47 1023.6
20230207185537 53 161 1.7 7.0 0.00 0.00 0.00 48 1023.7
20230207185039 53 155 0.9 7.8 0.00 0.00 0.00 48 1023.9
20230207184557 53 35 2.6 7.8 0.00 0.00 0.00 48 1024.1
20230207184036 53 159 1.7 8.7 0.00 0.00 0.00 48 1024.1
20230207183537 52 178 1.7 8.7 0.00 0.00 0.00 49 1024.2
20230207183050 52 266 0.0 6.1 0.00 0.00 0.00 50 1023.9
20230207182537 52 152 1.7 11.3 0.00 0.00 0.00 49 1024.1
20230207182036 52 178 1.7 11.3 0.00 0.00 0.00 51 1024.3
20230207181603 51 186 3.5 8.7 0.00 0.00 0.00 50 1024.3
20230207181037 51 224 2.6 7.8 0.00 0.00 0.00 50 1024.4
20230207180538 51 281 2.6 7.8 0.00 0.00 0.00 51 1024.5
20230207180102 51 151 1.7 7.8 0.00 0.00 0.00 52 1024.6
20230207175535 50 105 1.7 7.0 0.00 0.00 0.00 52 1024.7
20230207175037 50 23 2.6 9.6 0.00 0.00 0.00 51 1024.9
20230207174611 50 216 2.6 9.6 0.00 0.00 0.00 51 1025.2
20230207174036 50 182 1.7 7.0 0.00 0.00 0.00 52 1025.3
20230207173537 50 198 2.6 7.0 0.00 0.00 0.00 50 1025.5
20230207173045 50 235 0.9 7.0 0.00 0.00 0.00 52 1025.5
20230207172536 50 188 2.6 8.7 0.00 0.00 0.00 52 1025.5
20230207172036 50 236 3.5 9.6 0.00 0.00 0.00 52 1025.6
20230207171551 50 135 0.9 10.4 0.00 0.00 0.00 52 1025.8
20230207171036 50 169 2.6 10.4 0.00 0.00 0.00 52 1025.9
20230207170537 49 140 1.7 7.8 0.00 0.00 0.00 53 1025.9
20230207170103 48 0 2.6 8.7 0.00 0.00 0.00 54 1026.2
20230207165535 48 144 3.5 8.7 0.00 0.00 0.00 55 1026.4
20230207165037 48 60 2.6 8.7 0.00 0.00 0.00 54 1026.4
20230207164556 47 235 1.7 9.6 0.00 0.00 0.00 56 1026.5
20230207164035 47 166 3.5 9.6 0.00 0.00 0.00 56 1026.7
20230207163537 47 184 3.5 8.7 0.00 0.00 0.00 58 1026.8
20230207163102 47 162 1.7 7.8 0.00 0.00 0.00 58 1027.0
20230207162536 47 132 2.6 7.8 0.00 0.00 0.00 58 1027.2
20230207162036 46 233 1.7 7.0 0.00 0.00 0.00 59 1027.4
20230207161552 46 150 1.7 5.2 0.00 0.00 0.00 60 1027.2
20230207161038 45 86 1.7 6.1 0.00 0.00 0.00 63 1027.4
20230207160537 45 117 1.7 7.0 0.00 0.00 0.00 62 1027.3